sat.trackr.live / text

‹ back to catalog

YAOGAN-43 01G

NORAD 60464 · 2024-148G

PAYLOAD ACTIVE UNKNOWN

§ Identity

Operator
Country
PRC
Launch date
2024-08-16
Launch site
XICLF
Launch vehicle
Mass (kg)
RCS (m²)

External: N2YO · Heavens-Above · Gunter

§ Orbital elements

Epoch: 2026-05-25T02:24:07.624800Z

Period
94.15 min
Inclination
35.0043°
Eccentricity
0.0007025
Mean motion
15.29482591 rev/d
Perigee alt
472.5 km
Apogee alt
482.2 km
Semi-major
6,855.5 km
B*
2.2468e-4
RAAN
295.5101°
Arg perigee
293.2053°
Mean anomaly
66.7924°
Rev number
9,874

§ Raw data

YAOGAN-43 01G1 60464U 24148G   26145.10008825  .00006558  00000+0  22468-3 0  99992 60464  35.0043 295.5101 0007025 293.2053  66.7924 15.29482591 98746

JSON: /api/v1/satellites/60464 · /tle

For live sub-satellite position, see the globe view (requires WebGL).

§ Visibility from observer

Set your observer location to see the next 7 days of passes ≥ 10°. The values pass through the URL so the page stays shareable.

No JS? Fill the form by hand. The geolocation button needs JavaScript.